Location: Bunila
(45.7000°N, 22.6667°E)
Time: 20:03:47
(UTC+00:00)

Daily predictions for brighter satellites

Satellite Brightness Start Highest point End
(mag) Time Altitude Azimuth Time Altitude Azimuth Time Altitude Azimuth
BREEZE-M DEB (TANK) 4.2 17:53:20 10° WNW 17:57:28 65° N 18:12:39 10° E
CSL-04 Rocket 4.5 18:07:47 10° S 18:12:56 54° W 18:18:11 10° NNW
Cosmos 1844 4.4 18:09:20 10° SSE 18:14:20 32° ESE 18:19:18 10° NE
Cosmos 968 Rocket 3.8 18:12:07 10° S 18:17:05 45° ESE 18:22:04 10° NNE
ATLAS 5 CENTAUR R/B 3.3 18:12:36 10° NNW 18:17:30 34° NE 18:23:12 10° ESE
Resurs 1-3 3.9 18:15:04 10° SSE 18:19:19 51° ENE 18:23:35 10° N
CZ-4 R/B 4.3 18:16:58 10° SW 18:19:33 16° W 18:22:07 10° NW
Cosmos 1743 Rocket 3.6 18:15:27 10° N 18:19:46 61° E 18:24:04 10° SSE
ERS-2 2.5 18:16:53 10° N 18:20:30 68° WNW 18:24:06 10° SSW
Cosmos 1486 Rocket 4.4 18:19:19 10° S 18:24:18 42° ESE 18:29:19 10° NE
S3M 4.5 18:20:38 10° SSE 18:26:35 43° E 18:32:31 10° NNE
Cosmos 1500 Rocket 3.5 18:27:21 10° N 18:31:47 84° E 18:36:09 10° S
IGS 5A 4.3 18:28:21 10° SE 18:32:07 34° ENE 18:35:53 10° N
Cosmos 2221 3.1 18:29:22 10° SSW 18:33:37 61° W 18:37:56 10° N
Cosmos 1862 4.4 18:36:10 10° NNW 18:40:00 45° W 18:43:50 10° SSW
USA 186 3.8 18:39:04 10° SSW 18:41:07 20° W 18:43:05 10° NW
Cosmos 1553 Rocket 4.0 18:39:03 10° S 18:45:09 84° E 18:51:24 10° N
FALCON 9 DEB 3.8 18:42:50 10° WNW 18:45:40 36° SW 18:48:00 13° SSE
Cosmos 1933 3.9 18:42:07 10° SSE 18:45:51 38° E 18:49:37 10° NNE
USA 245 4.3 18:46:32 11° E 18:47:08 12° ENE 18:48:06 10° NE
FALCON 9 DEB 4.2 18:49:12 10° WNW 18:51:54 30° SW 18:54:03 14° SSE
Cosmos 1242 Rocket 3.2 18:50:09 11° SSE 18:53:14 35° E 18:56:31 10° NNE
OBJECT-B 2.8 18:51:44 10° SSW 18:54:33 27° W 18:57:24 10° NW
Cosmos 1437 Rocket 2.7 18:51:52 10° S 18:55:42 89° WNW 18:59:40 10° N
Resurs 01 Rocket 1.6 18:52:08 11° SSE 18:56:28 74° ENE 19:00:56 10° N
DELTA 2 R/B (1) 4.1 18:51:50 10° WSW 18:57:03 42° S 19:01:06 16° SE
Spot 2 Rocket 4.4 18:54:01 14° ESE 18:57:39 33° ENE 19:02:09 10° N
CZ-4C R/B 3.8 18:52:28 10° NNW 18:58:57 40° NE 19:06:07 11° ESE
Cosmos 2082 Rocket 4.3 18:56:44 10° N 18:59:58 15° NE 19:03:12 10° ENE
Meteor 1-20 Rocket 4.2 18:54:28 10° N 19:00:06 67° ENE 19:05:02 13° SSE
FALCON 9 DEB 4.0 18:57:53 10° WNW 19:00:41 33° SW 19:02:29 17° SSE
Sich 1 3.0 18:57:55 10° N 19:02:15 74° E 19:06:02 14° SSE
Intercosmos 24 3.6 18:59:14 10° S 19:03:09 72° E 19:06:42 10° NNE
OE (NEXTSAT) 4.3 19:00:19 10° W 19:03:47 83° N 19:06:50 13° E
Cosmos 1782 3.4 19:07:44 19° SSE 19:10:10 38° E 19:13:54 10° NNE
Cosmos 1500 4.5 19:07:47 10° NNE 19:10:56 25° ENE 19:12:18 20° ESE
ERS-1 Rocket 4.0 19:10:52 18° ESE 19:13:48 31° ENE 19:18:11 10° N
Cosmos 1503 Rocket 3.9 19:09:56 10° S 19:15:02 66° ESE 19:20:12 10° NNE
SPOT 5 4.0 19:13:38 18° ESE 19:16:33 32° ENE 19:21:10 10° N
Cosmos 1151 Rocket 3.1 19:21:15 18° S 19:24:18 58° E 19:28:37 10° NNE
Terra 3.1 19:23:30 19° ESE 19:25:42 27° ENE 19:29:41 10° N
Cosmos 2278 Rocket 3.2 19:23:59 22° SE 19:25:44 26° ESE 19:30:18 10° NE
Ariane Rocket 4.5 19:24:08 10° SSW 19:28:40 33° W 19:33:13 10° NNW
USA 290 2.5 19:25:31 10° NNW 19:28:44 63° WSW 19:30:10 29° S
Cosmos 1602 3.6 19:25:15 10° N 19:29:07 81° E 19:31:09 27° SSE
Meteor 1-25 Rocket 4.4 19:23:55 10° NNW 19:29:46 76° W 19:34:41 15° S
CZ-2C R/B 3.7 19:30:16 10° NNE 19:34:46 86° WNW 19:39:18 10° SSW
Cosmos 1844 Rocket 3.6 19:32:37 10° SW 19:38:01 50° WNW 19:43:28 10° NNE
SPOT 1/Viking Rocket 3.6 19:36:10 21° S 19:39:42 82° WSW 19:44:56 10° NNW
MetOp-B 4.4 19:36:53 17° S 19:41:00 65° WSW 19:46:21 10° NNW
Cosmos 1515 Rocket 4.1 19:40:29 32° SE 19:41:46 40° E 19:45:55 10° NNE
Cosmos 2084 3.6 19:41:37 26° S 19:43:34 46° ESE 19:47:38 10° NE
SL-4 R/B 3.7 19:40:03 10° W 19:43:48 26° SW 19:45:35 21° S
USA 308 4.4 19:41:03 10° NW 19:44:58 33° NNE 19:48:19 13° ENE
ARIANE 5 R/B 2.5 19:43:07 32° SSE 19:45:07 80° ENE 19:49:28 10° NNW
Cosmos 1354 Rocket 4.1 19:41:04 10° SSW 19:46:18 80° WNW 19:51:35 10° NNE
X-37B 0.5 19:44:29 10° W 19:47:39 64° SSW 19:47:53 61° SSE
SWARM A 4.2 19:46:01 10° N 19:49:20 63° E 19:49:46 55° SE
JB-3 4.2 19:46:51 10° NNE 19:50:46 69° E 19:52:04 39° S
Cosmos 1633 Rocket 3.3 19:47:38 10° NNW 19:52:00 68° W 19:54:17 27° S
Cosmos 2184 Rocket 4.4 19:47:49 10° N 19:53:50 47° ENE 19:56:32 30° SE
Cosmos 1437 2.3 19:54:18 87° NE 19:54:18 87° NE 19:57:07 10° N
Milstar 3 4.4 19:44:46 10° SW 19:54:21 24° S 19:56:05 23° SSE
Cosmos 1709 Rocket 4.2 19:49:17 10° NNW 19:55:21 66° W 19:59:47 19° S
Cosmos 1812 2.7 19:56:31 49° SE 19:57:12 59° E 20:01:02 10° NNE
Meteor 1-5 Rocket 4.1 19:52:23 10° N 19:57:47 65° ENE 19:59:56 35° SE
Cosmos 1470 Rocket 3.5 19:56:42 10° N 20:01:12 87° ENE 20:02:47 41° S
Cosmos 2074 Rocket 4.2 19:55:44 10° N 20:01:57 57° ENE 20:04:41 33° SE
ATLAS 5 CENTAUR R/B 2.6 19:56:52 10° NW 20:02:29 60° WSW 20:05:41 30° S
Cosmos 1328 Rocket 3.8 19:59:49 22° SSW 20:02:36 69° W 20:07:02 10° N
NOSS 3-3 (A) 3.8 19:57:29 10° SSW 20:03:12 84° SE 20:09:46 10° NE
NOSS 3-3 (C) 3.8 19:57:35 10° SSW 20:03:18 83° SE 20:09:52 10° NE
ATLAS 2AS CENTAUR R/B 4.0 20:01:00 10° NNW 20:07:49 36° NNE 20:13:08 14° E
CARTOSAT-1 3.8 20:07:01 36° S 20:08:38 63° WSW 20:12:57 10° NNW
Cosmos 2315 Rocket 4.5 20:04:44 10° SSW 20:11:01 62° WNW 20:17:23 10° N
Cosmos 1833 Rocket 2.7 20:06:12 10° NNW 20:11:53 74° ENE 20:14:00 40° SE
Meteor 1-14 Rocket 4.5 20:07:24 10° NNW 20:13:16 69° W 20:16:14 29° S
BREEZE-M R/B 2.9 20:12:54 10° W 20:15:12 42° NNW 20:15:12 42° NNW
Cosmos 1933 Rocket 3.4 20:11:24 10° N 20:15:46 81° E 20:16:40 56° SSE
Cosmos 1666 2.5 20:13:25 10° N 20:17:10 74° E 20:17:20 72° ESE
Cosmos 1538 Rocket 4.0 20:16:35 10° NNW 20:21:59 80° ENE 20:23:35 47° SSE
Iridium 4 Rocket 3.7 20:22:03 37° S 20:24:29 89° E 20:30:25 10° N
USA 305 3.6 20:23:08 10° NW 20:27:18 49° NNE 20:28:37 35° ENE
Resurs 01 Rocket 4.3 20:31:42 10° WSW 20:33:29 12° W 20:35:15 10° WNW
Cosmos 158 Rocket 3.9 20:29:57 10° NNW 20:34:48 63° ENE 20:35:40 53° ESE
BREEZE M DEB (TANK) 3.0 20:31:55 10° WNW 20:34:07 34° WNW 20:34:07 34° WNW
Meteor 1-27 Rocket 3.9 20:36:14 47° SE 20:37:34 59° E 20:43:21 10° NNE
SJ 16-02 1.2 20:38:19 70° S 20:38:48 84° ESE 20:43:15 10° NNE
Cosmos 1680 Rocket 4.3 20:34:49 10° N 20:39:51 41° ENE 20:41:08 35° E
Cosmos 2228 Rocket 2.9 20:40:06 70° ESE 20:40:19 72° E 20:44:46 10° NNE
COSMOS 2406 3.3 20:36:35 10° NNW 20:42:12 66° WSW 20:43:43 47° S
Meteor 2-6 Rocket 4.5 20:41:14 29° SSW 20:43:54 61° WNW 20:49:21 10° N
Cosmos 2082 Rocket 2.2 20:39:30 10° NNW 20:45:08 71° ENE 20:46:28 51° SE
USA 306 3.2 20:42:15 10° NW 20:46:28 61° NNE 20:47:01 55° ENE
CZ-4C R/B 3.1 20:40:47 10° NW 20:48:04 69° WSW 20:51:18 40° SSE
ERS-1 Rocket 4.1 20:50:52 29° SW 20:52:30 36° W 20:57:08 10° NNW
SL-24 DEB 4.3 20:53:26 61° SW 20:54:01 69° W 20:58:37 10° N
SPOT 5 4.1 20:52:52 28° SW 20:54:31 36° W 20:59:19 10° NNW
H-2A R/B 4.2 20:52:49 10° N 20:56:52 48° WNW 20:57:49 40° WSW
Cosmos 1295 Rocket 4.4 20:53:08 10° N 20:59:31 85° E 21:01:13 52° SSE
Cosmos 1271 Rocket 3.4 21:00:22 47° W 21:00:41 48° WNW 21:04:36 10° N
Meteor 1-11 Rocket 3.9 20:55:13 10° NNW 21:01:11 72° W 21:02:44 50° SSW
Terra 2.7 21:02:23 35° WSW 21:03:17 38° W 21:07:45 10° NNW
Cosmos 2278 Rocket 2.9 21:05:44 20° SW 21:09:28 52° WNW 21:15:01 10° NNE
USA 307 3.1 21:07:32 10° NW 21:11:25 71° NNW 21:11:25 71° NNW
Spot 4 3.9 21:14:20 62° E 21:14:34 63° ENE 21:19:24 10° N
Cosmos 1340 Rocket 3.2 21:10:33 10° N 21:14:05 63° N 21:14:05 63° N
Cosmos 923 Rocket 3.8 21:09:48 10° NNW 21:15:04 82° WSW 21:15:32 73° S
Cosmos 1898 Rocket 3.6 21:17:25 61° ESE 21:17:25 61° ESE 21:22:36 10° NNE
Cosmos 2369 Rocket 3.8 21:21:41 21° E 21:21:41 21° E 21:24:53 10° NE
Cosmos 1544 4.2 21:18:22 10° NNW 21:20:56 43° NNW 21:20:56 43° NNW
Cosmos 1869 Rocket 4.3 21:19:53 10° NNW 21:23:54 43° W 21:23:54 43° W
Cosmos 1536 3.7 21:20:21 10° NNW 21:23:48 45° WNW 21:23:48 45° WNW
USA 308 3.4 21:21:00 10° WNW 21:24:24 54° WNW 21:24:24 54° WNW
SL-8 Rocket 4.1 21:19:25 10° N 21:25:44 66° E 21:26:56 55° SE
Cosmos 1943 Rocket 2.6 21:30:26 46° E 21:30:26 46° E 21:35:24 10° NE
Cosmos 1975 4.0 21:33:33 10° N 21:36:27 35° NE 21:36:27 35° NE
ALOS 2 3.0 21:38:42 56° NE 21:38:42 56° NE 21:42:37 10° N
Meteor 2-4 Rocket 4.5 21:38:27 38° E 21:38:35 38° E 21:43:47 10° NNE
Cosmos 990 Rocket 4.1 21:40:01 64° WSW 21:40:37 70° WNW 21:45:53 10° NNE
Cosmos 44 3.5 21:36:30 10° NNW 21:41:57 71° NE 21:42:24 67° E
Cosmos 1707 Rocket 4.0 21:42:54 57° WNW 21:42:54 57° WNW 21:46:56 10° N
NOSS 3-4 (A) 4.1 21:38:45 10° NW 21:45:38 56° WSW 21:47:02 49° SSW
NOSS 3-4 (C) 4.1 21:38:51 10° NW 21:45:45 56° WSW 21:47:09 49° SSW
Meteor 1-18 Rocket 4.1 21:50:36 71° ESE 21:50:52 73° E 21:56:29 10° NNE
Cosmos 2112 Rocket 4.2 21:48:36 10° NNW 21:53:50 59° WSW 21:53:50 59° WSW
Cosmos 864 Rocket 4.3 21:48:21 10° N 21:54:33 84° E 21:55:21 69° SSE
SL-24 R/B - RUBIN 2 3.8 21:51:20 10° NW 21:56:38 82° NW 21:56:38 82° NW
Cosmos 1238 Rocket 3.8 21:50:55 10° NNW 21:57:15 70° W 21:57:51 65° SW
Cosmos 1959 Rocket 4.3 21:51:08 10° N 21:57:25 90° W 21:58:15 69° S
Cosmos 1743 4.3 21:54:22 10° NNW 21:56:52 29° WNW 21:56:52 29° WNW
USA 215 3.4 21:55:03 32° ESE 21:58:19 71° NNE 22:04:50 10° NW
ATLAS 2AS CENTAUR R/B 2.6 21:52:05 10° NW 21:59:25 72° WSW 22:00:32 61° S
SeaSat 1 3.5 21:55:00 10° NE 21:58:33 34° E 21:58:33 34° E
Cosmos 2297 3.8 22:03:58 62° WSW 22:04:46 72° WNW 22:10:29 10° NNE
Cosmos 2181 Rocket 4.0 22:07:22 59° SW 22:08:24 70° W 22:14:32 10° N
Cosmos 1733 Rocket 4.3 22:12:50 10° NNW 22:16:02 33° WNW 22:16:02 33° WNW
SJ 16-02 4.1 22:15:57 10° W 22:18:01 13° NW 22:20:06 10° NNW
Cosmos 2366 rocket 4.1 22:17:22 10° NNW 22:23:24 58° W 22:24:07 55° WSW
Cosmos 1937 Rocket 4.0 22:24:06 48° W 22:24:37 50° WNW 22:29:40 10° NNE
Cosmos 1821 Rocket 4.1 22:18:44 10° N 22:25:09 69° E 22:26:15 58° SE
Thor Agena Rocket 3.5 22:22:34 10° NNE 22:27:49 82° E 22:27:49 82° E
Cosmos 1818 3.5 22:22:27 10° NW 22:27:40 73° W 22:27:40 73° W
Cosmos 2082 Rocket 4.0 22:24:51 10° WNW 22:28:19 18° W 22:28:19 18° W
Cosmos 1908 Rocket 4.0 22:24:14 10° NNW 22:27:56 58° NNW 22:27:56 58° NNW
Cosmos 2298 Rocket 4.4 22:34:35 54° E 22:34:35 54° E 22:39:26 10° NNE
Cosmos 1048 Rocket 4.2 22:30:03 10° NNW 22:35:22 64° ENE 22:35:45 62° E
Resurs 1-4 Rocket 4.4 22:34:11 10° ENE 22:36:07 12° E 22:37:05 11° E
Gbstr 26 Del rocket 3.8 22:31:12 10° WNW 22:38:14 83° NNE 22:40:00 48° ESE
Nimbus 7 Rocket 4.4 22:32:47 10° N 22:38:38 69° WNW 22:39:29 60° WSW
USA 281 4.3 22:36:11 19° ESE 22:40:24 40° NE 22:46:26 10° NNW
Cosmos 1356 Rocket 4.2 22:38:05 10° N 22:41:40 49° NE 22:41:40 49° NE
Cosmos 1461 3.4 22:53:28 65° NNW 22:53:28 65° NNW 22:57:49 10° NNE
Cosmos 1703 Rocket 4.3 22:57:18 47° NW 22:57:18 47° NW 23:00:58 10° N
Cosmos 1782 Rocket 4.1 22:55:40 10° NNW 22:59:17 52° NW 22:59:17 52° NW
Nadezhda 3 Rocket 3.9 23:02:11 62° SW 23:03:09 73° W 23:09:24 10° N
Cosmos 1378 4.4 23:04:38 39° N 23:04:38 39° N 23:07:05 10° N
Cosmos 2369 Rocket 2.4 23:03:27 55° W 23:04:14 61° WNW 23:09:51 10° NNE
Cosmos 2150 Rocket 3.9 23:04:47 84° SSW 23:04:58 89° WNW 23:10:20 10° NNE
Lacrosse 5 3.8 23:11:02 17° ESE 23:11:02 17° ESE 23:13:18 10° E
Meteor 1-13 Rocket 4.1 23:09:32 72° WSW 23:09:58 77° WNW 23:15:32 10° N
RESURS DK-1 3.1 23:06:48 10° NNW 23:09:53 48° NNW 23:09:53 48° NNW
Meteor 1-12 Rocket 4.2 23:06:49 10° NNW 23:12:40 68° W 23:13:07 65° SW
Gblst 52 Del rocket 4.2 23:06:09 10° WNW 23:12:43 85° SSW 23:14:42 45° SE
Cosmos 1943 Rocket 3.6 23:11:55 24° W 23:13:58 31° NW 23:18:55 10° N
SL-27 R/B 4.5 23:11:50 10° NNW 23:13:17 24° NNW 23:13:17 24° NNW
Cosmos 1805 4.1 23:11:35 10° N 23:14:33 49° N 23:14:33 49° N
Cosmos 1733 4.2 23:13:52 10° N 23:16:42 45° NNE 23:16:42 45° NNE
PSLV R/B 4.1 23:14:28 10° N 23:18:26 52° NW 23:18:26 52° NW
Cosmos 1726 4.5 23:16:19 10° NNE 23:18:47 17° ENE 23:19:29 16° E
Cosmos 1867 3.4 23:18:57 74° WSW 23:19:25 83° NW 23:24:56 10° NE
Cosmos 1607 4.0 23:19:25 57° SW 23:20:51 83° NW 23:27:24 10° NE
Cosmos 1766 4.0 23:17:45 10° N 23:21:04 52° NE 23:21:04 52° NE
Cosmos 2263 4.5 23:22:38 52° WSW 23:23:41 60° WNW 23:29:26 10° NNE
Helios 1B rocket 4.2 23:20:27 10° NE 23:23:44 22° E 23:23:44 22° E
Cosmos 1066 Rocket 4.2 23:26:45 63° SW 23:27:31 72° WNW 23:33:14 10° N
Okean 3 4.3 23:28:08 43° NW 23:28:08 43° NW 23:31:43 10° N
Meteor 1-23 Rocket 4.1 23:28:21 66° S 23:29:14 88° E 23:35:06 10° NNE
Cosmos 1605 Rocket 4.0 23:24:09 10° N 23:30:24 76° E 23:32:12 49° SSE
Helios 1A 3.2 23:31:38 65° NNW 23:31:38 65° NNW 23:35:15 10° NNW
ATLAS CENTAUR R/B 2.1 23:33:01 45° NE 23:33:01 45° NE 23:35:45 10° NE
Cosmos 1400 Rocket 3.7 23:32:08 10° N 23:36:05 44° ENE 23:36:18 43° E
Sich 1 Rocket 4.1 23:31:37 10° NNW 23:35:34 51° WNW 23:35:34 51° WNW
Cosmos 1125 Rocket 3.6 23:35:51 58° W 23:36:24 62° WNW 23:41:36 10° NNE
SeaSat 1 3.6 23:32:36 10° NNE 23:37:03 34° NW 23:38:19 30° W
Okean 1 Rocket 4.0 23:33:21 10° N 23:37:31 40° ENE 23:38:20 36° ESE
Cosmos 1656 Rocket 4.1 23:39:04 44° W 23:40:08 50° WNW 23:45:32 10° NNE
Cosmos 494 Rocket 4.3 23:35:37 10° NNW 23:40:14 48° W 23:40:14 48° W
USA 215 3.8 23:42:21 38° WSW 23:42:21 38° WSW 23:47:41 10° WNW
USA 81 3.9 23:36:27 10° N 23:41:47 85° W 23:42:25 70° SSW
Cosmos 1470 3.9 23:39:56 10° N 23:43:35 36° ENE 23:43:58 35° E
Cosmos 1674 Rocket 3.5 23:49:59 76° ESE 23:50:06 76° E 23:54:34 10° NNE
Cosmos 2227 Rocket 4.4 23:46:12 10° N 23:50:45 24° NE 23:55:16 10° ESE
CZ-2D R/B 2.6 23:47:13 10° NNE 23:52:33 54° E 23:53:55 42° SSE
Cosmos 2297 Rocket 3.9 23:49:36 10° N 23:54:38 31° NE 23:59:37 10° ESE
